{"data":{"norad_id":42841,"intl_designator":"2017-042S","name":"LEMUR-2-PETERG","alt_names":[],"object_type":"PAYLOAD","status":"ACTIVE","operator":null,"country":"US","launch_date":"2017-07-14","launch_site_code":"TYMSC","launch_vehicle":null,"mission":null,"orbit_class":"UNKNOWN","rcs_meters":null,"size_class":null,"mass_kg":null,"dimensions":null,"purposes":["earth_obs"],"wikipedia_slug":null,"has_3d_model":false,"image_url":null,"decayed_at":null,"tle_current":{"epoch":"2026-09-19T18:31:53.569056Z","epoch_age_seconds":77278,"freshness":"FRESH","line1":"1 42841U 17042S   26262.77214779  .00016848  00000+0  45793-3 0  9992","line2":"2 42841  97.4007  88.2422 0003780  18.0717 342.0662 15.37622715502959","mean_motion":15.37622715,"eccentricity":0.000378,"inclination_deg":97.4007,"raan_deg":88.2422,"arg_perigee_deg":18.0717,"mean_anomaly_deg":342.0662,"bstar":0.00045793,"rev_number":50295,"period_min":93.651061860126,"perigee_km":450.55916260198,"apogee_km":455.72360906167,"semimajor_km":6831.2783858318,"source":"CELESTRAK","updated_at":"2026-09-20T09:00:34.868139Z"}}}